Provo, UT

11:48 PM MDT on October 19, 2017 (GMT -0600)
Provo Municipal

Weather History for KPVU - April, 2013

Change the Weather History Date:

Monday, April 8, 2013

  Actual Average Record
Temperature  
Mean Temperature 46 °F -  
Max Temperature 55 °F 55 °F 77 °F (2016)
Min Temperature 37 °F 33 °F 27 °F (1983)
Degree Days  
Heating Degree Days 19    
Moisture  
Dew Point 34 °F    
Average Humidity 67    
Maximum Humidity 93    
Minimum Humidity 33    
Precipitation  
Precipitation 0.00 in - - ()
Sea Level Pressure  
Sea Level Pressure 29.49 in    
Wind  
Wind Speed 12 mph (NNW)    
Max Wind Speed 37 mph    
Max Gust Speed 44 mph    
Visibility 10 miles    
Events Rain    
Averages and records for this station are not official NWS values.
T = Trace of Precipitation, MM = Missing Value Source: NWS Daily Summary

Daily Weather History Graph

Daily Weather History Graph

Search for Another Location

Airport or City:

Trip Planner

Search our weather history database for the weather conditions in past years. The results will help you decide how hot, cold, wet, or windy it might be!

Date:

Astronomy

Apr. 08, 2013 Rise Set
Actual Time 6:59 AM MDT 7:58 PM MDT
Civil Twilight 6:31 AM MDT 8:26 PM MDT
Nautical Twilight 5:58 AM MDT 8:59 PM MDT
Astronomical Twilight 5:24 AM MDT 9:34 PM MDT
Moon 5:51 AM MDT (4/8) 6:36 PM MDT (4/8)
Length of Visible Light 13h 55m
Length of Day
12h 59m
Waning Crescent, 3% of the Moon is Illuminated
Apr 8
Waning Crescent
Apr 10
New
Apr 18
First Quarter
Apr 25
Full
May 2
Last Quarter

Hourly Weather History & Observations

Time (MDT) Temp. Windchill Dew Point Humidity Pressure Visibility Wind Dir Wind Speed Gust Speed Precip Events Conditions
12:15 AM 51.8 °F - 37.4 °F 58% 29.59 in 10.0 mi NNE 6.9 mph - N/A   Scattered Clouds
12:35 AM 53.6 °F - 37.4 °F 54% 29.60 in 10.0 mi NNE 4.6 mph - N/A   Mostly Cloudy
12:55 AM 51.8 °F - 37.4 °F 58% 29.59 in 10.0 mi Calm Calm - N/A   Overcast
1:15 AM 53.6 °F - 33.8 °F 47% 29.56 in 10.0 mi ESE 6.9 mph - N/A   Mostly Cloudy
1:35 AM 53.6 °F - 30.2 °F 41% 29.55 in 10.0 mi ESE 8.1 mph - N/A   Mostly Cloudy
1:55 AM 55.4 °F - 26.6 °F 33% 29.55 in 10.0 mi South 8.1 mph - N/A   Mostly Cloudy
2:15 AM 53.6 °F - 30.2 °F 41% 29.53 in 10.0 mi SSE 10.4 mph - N/A   Overcast
2:35 AM 55.4 °F - 30.2 °F 38% 29.52 in 10.0 mi NNW 4.6 mph - N/A   Overcast
2:55 AM 55.4 °F - 32.0 °F 41% 29.53 in 10.0 mi West 5.8 mph - N/A   Mostly Cloudy
3:15 AM 53.6 °F - 33.8 °F 47% 29.55 in 10.0 mi NW 9.2 mph - N/A   Mostly Cloudy
3:35 AM 51.8 °F - 35.6 °F 54% 29.53 in 10.0 mi WNW 5.8 mph - N/A   Mostly Cloudy
3:55 AM 53.6 °F - 28.4 °F 38% 29.53 in 10.0 mi NE 9.2 mph - N/A   Overcast
4:15 AM 51.8 °F - 32.0 °F 47% 29.51 in 10.0 mi NNE 9.2 mph - N/A   Overcast
4:35 AM 51.8 °F - 33.8 °F 50% 29.51 in 10.0 mi East 12.7 mph - N/A   Mostly Cloudy
4:55 AM 50.0 °F - 33.8 °F 54% 29.50 in 10.0 mi East 11.5 mph - N/A   Mostly Cloudy
5:15 AM 50.0 °F - 33.8 °F 54% 29.49 in 10.0 mi SE 16.1 mph - N/A   Partly Cloudy
5:35 AM 48.2 °F - 35.6 °F 62% 29.48 in 10.0 mi SE 18.4 mph 23.0 mph N/A   Clear
6:15 AM 48.2 °F - 35.6 °F 62% 29.45 in 10.0 mi SE 15.0 mph - N/A   Mostly Cloudy
6:35 AM 46.4 °F 45.2 °F 35.6 °F 66% 29.44 in 10.0 mi North 3.5 mph - N/A   Scattered Clouds
6:48 AM 48.2 °F - 33.8 °F 58% 29.44 in 15.0 mi NNW 8.1 mph - N/A   Mostly Cloudy
7:50 AM 46.4 °F 40.7 °F 37.4 °F 71% 29.46 in 10.0 mi WNW 12.7 mph - N/A Rain Light Rain
8:48 AM 42.8 °F 38.6 °F 37.4 °F 81% 29.47 in 10.0 mi NW 6.9 mph - N/A Rain Light Rain
9:47 AM 42.8 °F 33.3 °F 37.4 °F 81% 29.46 in 10.0 mi WNW 24.2 mph - N/A Rain Light Rain
10:55 AM 42.8 °F 33.5 °F 37.4 °F 81% 29.45 in 10.0 mi WNW 23.0 mph - N/A Rain Light Rain
11:47 AM 39.2 °F 28.7 °F 37.4 °F 93% 29.46 in 10.0 mi WNW 23.0 mph - N/A Rain Light Rain
12:49 PM 39.2 °F 30.2 °F 35.6 °F 87% 29.47 in 10.0 mi WNW 17.3 mph 27.6 mph N/A Rain Light Rain
1:48 PM 41.0 °F 32.5 °F 37.4 °F 87% 29.46 in 10.0 mi WNW 17.3 mph - N/A Rain Light Rain
2:50 PM 42.8 °F 34.5 °F 37.4 °F 81% 29.44 in 10.0 mi WNW 18.4 mph - N/A Rain Light Rain Showers
3:50 PM 42.8 °F 35.1 °F 37.4 °F 81% 29.44 in 10.0 mi NW 16.1 mph - N/A   Overcast
4:50 PM 42.8 °F 35.8 °F 35.6 °F 76% 29.44 in 10.0 mi NW 13.8 mph - N/A   Overcast
5:50 PM 42.8 °F 34.5 °F 35.6 °F 76% 29.44 in 10.0 mi NW 18.4 mph 25.3 mph N/A   Overcast
6:50 PM 41.0 °F 32.2 °F 35.6 °F 81% 29.45 in 10.0 mi NW 18.4 mph 29.9 mph N/A Rain Light Rain
7:50 PM 39.2 °F 27.4 °F 33.8 °F 81% 29.46 in 10.0 mi NW 29.9 mph 41.4 mph N/A Rain Light Rain
8:50 PM 39.2 °F 27.0 °F 33.8 °F 81% 29.47 in 10.0 mi NW 32.2 mph 43.7 mph N/A   Overcast
9:15 PM 39.2 °F 27.4 °F 33.8 °F 81% 29.47 in 10.0 mi NNW 29.9 mph 42.6 mph N/A   Mostly Cloudy
9:35 PM 39.2 °F 27.0 °F 33.8 °F 81% 29.47 in 10.0 mi NNW 32.2 mph 40.3 mph N/A   Mostly Cloudy
9:55 PM 37.4 °F 23.8 °F 33.8 °F 87% 29.47 in 10.0 mi NW 36.8 mph 43.7 mph N/A   Mostly Cloudy
10:15 PM 37.4 °F 24.6 °F 33.8 °F 87% 29.48 in 10.0 mi NW 32.2 mph 40.3 mph N/A   Overcast
10:35 PM 37.4 °F 26.1 °F 33.8 °F 87% 29.49 in 10.0 mi NW 24.2 mph 38.0 mph N/A   Overcast
10:55 PM 37.4 °F 25.2 °F 33.8 °F 87% 29.50 in 10.0 mi NW 28.8 mph 34.5 mph N/A   Overcast
11:15 PM 37.4 °F 26.4 °F 33.8 °F 87% 29.51 in 10.0 mi NNW 23.0 mph 31.1 mph N/A   Overcast
11:35 PM 37.4 °F 26.9 °F 32.0 °F 81% 29.51 in 10.0 mi NW 20.7 mph 29.9 mph N/A   Mostly Cloudy
11:55 PM 37.4 °F 29.8 °F 30.2 °F 75% 29.52 in 10.0 mi NNW 11.5 mph 26.5 mph N/A   Mostly Cloudy